Find EagleEye

NORAD ID: 60508 Int'l Des: 2024-149 Owner: CREO Country: PL operational
LEOCIRCULARRETROGRADESSO

Live Position

Loading 3D Globe...

About EagleEye

Description loading...

Upcoming Passes

Passes for default location (London). Set your location on the main map for personalized predictions.

Altitude History

Loading altitude history...

Two-Line Element Set

1 60508U 24149AS 26106.50516477 .00036129 00000-0 41661-3 0 9991
2 60508 97.3741 196.9090 0003675 140.6798 219.4728 15.61860252 93283
Epoch: Apr 16, 2026 • Age: 15 hours

Current Status

Altitude 406.6 km
Velocity 7.66 km/s
Sub-Earth Point -61.92°S, 113.36°E
Launch Date Aug 16, 2024
Age 1.6 years
Type other

Technical Details

Classification Payload
Mass 55.00 kg
Dry Mass 55.00 kg
Total Mass 55.00 kg
Length 0.90 m
Diameter 0.50 m
Span 1.50 m
Shape Box + 2 pan
Manufacturer CREO
Bus Type HyperSat
Phase Status In Orbit
Owner/State CREO/PL

Most Searched